Location: Newark
(13.6797°N, 8.5297°E)
Time: 07:26:54
(UTC+00:00)

SR - Pass Details

Date: 30 January 2020
Orbit: 575 x 881 km, 66.7° (Epoch: 20 February)

Event Time Altitude Azimuth Distance (km) Brightness Sun altitude
Rises 05:30:37 0° 2° (N) 3,197 ? -6.1°
Reaches altitude 10° 05:33:49 10° 21° (NNE) 2,207 ? -5.4°
Maximum altitude 05:37:09 18° 63° (ENE) 1,673 ? -4.6°
Drops below altitude 10° 05:40:19 10° 106° (ESE) 2,074 ? -3.9°
Sets 05:43:11 0° 125° (SE) 2,928 ? -3.2°
